Year,Month,Day,Hour,Minute,Value (Times are PST for windspeed in km/hr)
2020,09,25,00,00,0.00
2020,09,25,00,01,0.00
2020,09,25,00,02,0.00
2020,09,25,00,03,0.00
2020,09,25,00,04,0.00
2020,09,25,00,05,0.00
2020,09,25,00,06,0.00
2020,09,25,00,07,0.00
2020,09,25,00,08,0.00
2020,09,25,00,09,0.00
2020,09,25,00,10,0.00
2020,09,25,00,11,0.00
2020,09,25,00,12,0.00
2020,09,25,00,13,0.00
2020,09,25,00,14,0.00
2020,09,25,00,15,0.00
2020,09,25,00,16,0.00
2020,09,25,00,17,0.00
2020,09,25,00,18,0.00
2020,09,25,00,19,0.00
2020,09,25,00,20,0.00
2020,09,25,00,21,0.00
2020,09,25,00,22,0.00
2020,09,25,00,23,0.00
2020,09,25,00,24,0.00
2020,09,25,00,25,0.00
2020,09,25,00,26,0.00
2020,09,25,00,27,0.00
2020,09,25,00,28,0.00
2020,09,25,00,29,0.00
2020,09,25,00,30,0.00
2020,09,25,00,31,0.00
2020,09,25,00,32,0.00
2020,09,25,00,33,0.00
2020,09,25,00,34,0.00
2020,09,25,00,35,0.00
2020,09,25,00,36,0.00
2020,09,25,00,37,0.20
2020,09,25,00,38,0.20
2020,09,25,00,39,0.00
2020,09,25,00,40,0.00
2020,09,25,00,41,0.00
2020,09,25,00,42,0.00
2020,09,25,00,43,0.00
2020,09,25,00,44,0.00
2020,09,25,00,45,0.00
2020,09,25,00,46,0.00
2020,09,25,00,47,0.00
2020,09,25,00,48,0.00
2020,09,25,00,49,0.00
2020,09,25,00,50,0.00
2020,09,25,00,51,0.00
2020,09,25,00,52,0.00
2020,09,25,00,53,0.00
2020,09,25,00,54,0.00
2020,09,25,00,55,0.00
2020,09,25,00,56,0.00
2020,09,25,00,57,0.00
2020,09,25,00,58,0.00
2020,09,25,00,59,0.00
2020,09,25,01,00,0.00
2020,09,25,01,01,0.00
2020,09,25,01,02,0.00
2020,09,25,01,03,0.00
2020,09,25,01,04,0.00
2020,09,25,01,05,0.00
2020,09,25,01,06,0.00
2020,09,25,01,07,0.00
2020,09,25,01,08,0.00
2020,09,25,01,09,0.00
2020,09,25,01,10,0.00
2020,09,25,01,11,0.00
2020,09,25,01,12,0.50
2020,09,25,01,13,0.20
2020,09,25,01,14,0.00
2020,09,25,01,15,0.00
2020,09,25,01,16,0.00
2020,09,25,01,17,0.80
2020,09,25,01,18,0.30
2020,09,25,01,19,0.00
2020,09,25,01,20,0.20
2020,09,25,01,21,0.10
2020,09,25,01,22,0.00
2020,09,25,01,23,0.60
2020,09,25,01,24,0.30
2020,09,25,01,25,1.80
2020,09,25,01,26,0.20
2020,09,25,01,27,0.00
2020,09,25,01,28,0.20
2020,09,25,01,29,1.40
2020,09,25,01,30,0.00
2020,09,25,01,31,0.20
2020,09,25,01,32,1.70
2020,09,25,01,33,1.00
2020,09,25,01,34,0.00
2020,09,25,01,35,0.00
2020,09,25,01,36,0.00
2020,09,25,01,37,0.00
2020,09,25,01,38,0.00
2020,09,25,01,39,0.00
2020,09,25,01,40,0.00
2020,09,25,01,41,0.00
2020,09,25,01,42,0.00
2020,09,25,01,43,0.00
2020,09,25,01,44,0.00
2020,09,25,01,45,0.00
2020,09,25,01,46,0.00
2020,09,25,01,47,0.00
2020,09,25,01,48,0.00
2020,09,25,01,49,0.50
2020,09,25,01,50,0.90
2020,09,25,01,51,0.90
2020,09,25,01,52,0.00
2020,09,25,01,53,0.00
2020,09,25,01,54,0.00
2020,09,25,01,55,0.00
2020,09,25,01,56,0.00
2020,09,25,01,57,0.00
2020,09,25,01,58,0.00
2020,09,25,01,59,0.00
2020,09,25,02,00,0.00
2020,09,25,02,01,0.00
2020,09,25,02,02,0.00
2020,09,25,02,03,0.00
2020,09,25,02,04,0.00
2020,09,25,02,05,0.00
2020,09,25,02,06,0.00
2020,09,25,02,07,0.00
2020,09,25,02,08,0.00
2020,09,25,02,09,0.00
2020,09,25,02,10,0.00
2020,09,25,02,11,0.00
2020,09,25,02,12,0.00
2020,09,25,02,13,0.00
2020,09,25,02,14,0.00
2020,09,25,02,15,0.00
2020,09,25,02,16,0.10
2020,09,25,02,17,0.00
2020,09,25,02,18,0.00
2020,09,25,02,19,0.00
2020,09,25,02,20,0.00
2020,09,25,02,21,0.00
2020,09,25,02,22,0.00
2020,09,25,02,23,0.00
2020,09,25,02,24,0.00
2020,09,25,02,25,0.00
2020,09,25,02,26,0.00
2020,09,25,02,27,0.00
2020,09,25,02,28,0.00
2020,09,25,02,29,0.00
2020,09,25,02,30,0.00
2020,09,25,02,31,0.00
2020,09,25,02,32,0.00
2020,09,25,02,33,0.00
2020,09,25,02,34,0.00
2020,09,25,02,35,0.00
2020,09,25,02,36,0.00
2020,09,25,02,37,0.00
2020,09,25,02,38,0.00
2020,09,25,02,39,0.00
2020,09,25,02,40,0.00
2020,09,25,02,41,0.00
2020,09,25,02,42,0.00
2020,09,25,02,43,0.00
2020,09,25,02,44,0.00
2020,09,25,02,45,0.00
2020,09,25,02,46,0.00
2020,09,25,02,47,0.00
2020,09,25,02,48,0.00
2020,09,25,02,49,0.00
2020,09,25,02,50,0.00
2020,09,25,02,51,0.00
2020,09,25,02,52,0.00
2020,09,25,02,53,0.00
2020,09,25,02,54,0.00
2020,09,25,02,55,0.00
2020,09,25,02,56,0.00
2020,09,25,02,57,0.00
2020,09,25,02,58,0.00
2020,09,25,02,59,0.00
2020,09,25,03,00,0.70
2020,09,25,03,01,0.10
2020,09,25,03,02,0.00
2020,09,25,03,03,0.00
2020,09,25,03,04,0.00
2020,09,25,03,05,0.00
2020,09,25,03,06,0.00
2020,09,25,03,07,0.00
2020,09,25,03,08,0.00
2020,09,25,03,09,0.00
2020,09,25,03,10,0.00
2020,09,25,03,11,0.00
2020,09,25,03,12,0.00
2020,09,25,03,13,0.00
2020,09,25,03,14,0.00
2020,09,25,03,15,0.00
2020,09,25,03,16,0.00
2020,09,25,03,17,0.00
2020,09,25,03,18,1.60
2020,09,25,03,19,0.30
2020,09,25,03,20,0.50
2020,09,25,03,21,1.00
2020,09,25,03,22,0.70
2020,09,25,03,23,1.40
2020,09,25,03,24,1.60
2020,09,25,03,25,2.20
2020,09,25,03,26,1.70
2020,09,25,03,27,0.00
2020,09,25,03,28,1.20
2020,09,25,03,29,0.00
2020,09,25,03,30,0.00
2020,09,25,03,31,0.00
2020,09,25,03,32,0.00
2020,09,25,03,33,0.00
2020,09,25,03,34,0.00
2020,09,25,03,35,0.00
2020,09,25,03,36,0.00
2020,09,25,03,37,0.00
2020,09,25,03,38,0.00
2020,09,25,03,39,0.00
2020,09,25,03,40,0.00
2020,09,25,03,41,0.00
2020,09,25,03,42,1.30
2020,09,25,03,43,0.70
2020,09,25,03,44,0.00
2020,09,25,03,45,0.00
2020,09,25,03,46,1.00
2020,09,25,03,47,2.20
2020,09,25,03,48,1.50
2020,09,25,03,49,0.00
2020,09,25,03,50,0.00
2020,09,25,03,51,0.00
2020,09,25,03,52,0.00
2020,09,25,03,53,0.00
2020,09,25,03,54,3.00
2020,09,25,03,55,4.20
2020,09,25,03,56,3.60
2020,09,25,03,57,3.30
2020,09,25,03,58,1.90
2020,09,25,03,59,1.40
2020,09,25,04,00,1.20
2020,09,25,04,01,1.20
2020,09,25,04,02,2.40
2020,09,25,04,03,1.10
2020,09,25,04,04,0.00
2020,09,25,04,05,0.00
2020,09,25,04,06,0.00
2020,09,25,04,07,0.00
2020,09,25,04,08,0.00
2020,09,25,04,09,0.50
2020,09,25,04,10,0.00
2020,09,25,04,11,0.00
2020,09,25,04,12,0.00
2020,09,25,04,13,0.00
2020,09,25,04,14,0.00
2020,09,25,04,15,0.00
2020,09,25,04,16,0.00
2020,09,25,04,17,0.00
2020,09,25,04,18,0.00
2020,09,25,04,19,0.00
2020,09,25,04,20,0.00
2020,09,25,04,21,0.00
2020,09,25,04,22,0.00
2020,09,25,04,23,0.30
2020,09,25,04,24,0.00
2020,09,25,04,25,0.00
2020,09,25,04,26,0.10
2020,09,25,04,27,2.00
2020,09,25,04,28,1.00
2020,09,25,04,29,0.60
2020,09,25,04,30,0.30
2020,09,25,04,31,0.00
2020,09,25,04,32,0.30
2020,09,25,04,33,0.00
2020,09,25,04,34,0.00
2020,09,25,04,35,0.00
2020,09,25,04,36,0.00
2020,09,25,04,37,0.00
2020,09,25,04,38,0.00
2020,09,25,04,39,0.00
2020,09,25,04,40,0.00
2020,09,25,04,41,0.00
2020,09,25,04,42,0.10
2020,09,25,04,43,0.00
2020,09,25,04,44,0.00
2020,09,25,04,45,0.00
2020,09,25,04,46,0.00
2020,09,25,04,47,0.00
2020,09,25,04,48,0.00
2020,09,25,04,49,0.00
2020,09,25,04,50,0.00
2020,09,25,04,51,0.10
2020,09,25,04,52,0.00
2020,09,25,04,53,0.00
2020,09,25,04,54,0.00
2020,09,25,04,55,0.00
2020,09,25,04,56,0.00
2020,09,25,04,57,0.00
2020,09,25,04,58,0.00
2020,09,25,04,59,0.00
2020,09,25,05,00,0.00
2020,09,25,05,01,0.00
2020,09,25,05,02,0.00
2020,09,25,05,03,0.00
2020,09,25,05,04,0.00
2020,09,25,05,05,0.00
2020,09,25,05,06,0.00
2020,09,25,05,07,0.00
2020,09,25,05,08,0.00
2020,09,25,05,09,0.00
2020,09,25,05,10,0.00
2020,09,25,05,11,0.00
2020,09,25,05,12,0.00
2020,09,25,05,13,0.00
2020,09,25,05,14,0.00
2020,09,25,05,15,0.00
2020,09,25,05,16,0.00
2020,09,25,05,17,0.00
2020,09,25,05,18,0.00
2020,09,25,05,19,0.00
2020,09,25,05,20,0.00
2020,09,25,05,21,0.00
2020,09,25,05,22,0.00
2020,09,25,05,23,0.00
2020,09,25,05,24,0.00
2020,09,25,05,25,0.00
2020,09,25,05,26,0.00
2020,09,25,05,27,0.00
2020,09,25,05,28,0.30
2020,09,25,05,29,0.80
2020,09,25,05,30,0.00
2020,09,25,05,31,0.00
2020,09,25,05,32,0.00
2020,09,25,05,33,0.00
2020,09,25,05,34,0.00
2020,09,25,05,35,0.00
2020,09,25,05,36,0.00
2020,09,25,05,37,0.00
2020,09,25,05,38,0.00
2020,09,25,05,39,0.00
2020,09,25,05,40,0.50
2020,09,25,05,41,0.00
2020,09,25,05,42,0.00
2020,09,25,05,43,0.00
2020,09,25,05,44,0.00
2020,09,25,05,45,0.00
2020,09,25,05,46,0.00
2020,09,25,05,47,0.00
2020,09,25,05,48,0.00
2020,09,25,05,49,0.00
2020,09,25,05,50,0.00
2020,09,25,05,51,0.00
2020,09,25,05,52,0.00
2020,09,25,05,53,0.00
2020,09,25,05,54,0.00
2020,09,25,05,55,0.00
2020,09,25,05,56,0.00
2020,09,25,05,57,0.00
2020,09,25,05,58,0.00
2020,09,25,05,59,0.00
2020,09,25,06,00,0.00
2020,09,25,06,01,0.00
2020,09,25,06,02,0.00
2020,09,25,06,03,0.00
2020,09,25,06,04,0.00
2020,09,25,06,05,0.00
2020,09,25,06,06,0.00
2020,09,25,06,07,0.00
2020,09,25,06,08,0.00
2020,09,25,06,09,0.00
2020,09,25,06,10,0.00
2020,09,25,06,11,0.00
2020,09,25,06,12,0.00
2020,09,25,06,13,0.00
2020,09,25,06,14,0.00
2020,09,25,06,15,0.00
2020,09,25,06,16,0.00
2020,09,25,06,17,0.00
2020,09,25,06,18,0.00
2020,09,25,06,19,0.00
2020,09,25,06,20,0.00
2020,09,25,06,21,0.00
2020,09,25,06,22,0.00
2020,09,25,06,23,0.00
2020,09,25,06,24,0.00
2020,09,25,06,25,0.00
2020,09,25,06,26,0.00
2020,09,25,06,27,0.00
2020,09,25,06,28,0.00
2020,09,25,06,29,0.00
2020,09,25,06,30,0.00
2020,09,25,06,31,0.00
2020,09,25,06,32,0.00
2020,09,25,06,33,0.00
2020,09,25,06,34,0.00
2020,09,25,06,35,0.00
2020,09,25,06,36,0.00
2020,09,25,06,37,0.00
2020,09,25,06,38,0.00
2020,09,25,06,39,0.00
2020,09,25,06,40,0.00
2020,09,25,06,41,0.00
2020,09,25,06,42,0.00
2020,09,25,06,43,0.00
2020,09,25,06,44,0.00
2020,09,25,06,45,0.00
2020,09,25,06,46,0.00
2020,09,25,06,47,0.00
2020,09,25,06,48,0.00
2020,09,25,06,49,0.00
2020,09,25,06,50,0.00
2020,09,25,06,51,0.00
2020,09,25,06,52,0.00
2020,09,25,06,53,0.00
2020,09,25,06,54,0.00
2020,09,25,06,55,0.00
2020,09,25,06,56,0.00
2020,09,25,06,57,0.00
2020,09,25,06,58,0.00
2020,09,25,06,59,0.00
2020,09,25,07,00,0.00
2020,09,25,07,01,0.00
2020,09,25,07,02,0.10
2020,09,25,07,03,0.50
2020,09,25,07,04,0.40
2020,09,25,07,05,0.00
2020,09,25,07,06,0.00
2020,09,25,07,07,0.00
2020,09,25,07,08,0.00
2020,09,25,07,09,0.00
2020,09,25,07,10,0.00
2020,09,25,07,11,0.00
2020,09,25,07,12,0.00
2020,09,25,07,13,0.00
2020,09,25,07,14,0.50
2020,09,25,07,15,0.00
2020,09,25,07,16,0.00
2020,09,25,07,17,0.00
2020,09,25,07,18,0.00
2020,09,25,07,19,0.00
2020,09,25,07,20,0.00
2020,09,25,07,21,0.00
2020,09,25,07,22,0.00
2020,09,25,07,23,0.00
2020,09,25,07,24,0.00
2020,09,25,07,25,0.10
2020,09,25,07,26,0.00
2020,09,25,07,27,0.00
2020,09,25,07,28,0.00
2020,09,25,07,29,2.30
2020,09,25,07,30,0.60
2020,09,25,07,31,4.10
2020,09,25,07,32,0.80
2020,09,25,07,33,0.00
2020,09,25,07,34,0.00
2020,09,25,07,35,0.40
2020,09,25,07,36,1.50
2020,09,25,07,37,4.50
2020,09,25,07,38,4.20
2020,09,25,07,39,0.20
2020,09,25,07,40,0.00
2020,09,25,07,41,0.00
2020,09,25,07,42,0.00
2020,09,25,07,43,0.00
2020,09,25,07,44,0.00
2020,09,25,07,45,1.00
2020,09,25,07,46,0.00
2020,09,25,07,47,0.00
2020,09,25,07,48,0.00
2020,09,25,07,49,1.90
2020,09,25,07,50,2.00
2020,09,25,07,51,1.80
2020,09,25,07,52,3.10
2020,09,25,07,53,4.50
2020,09,25,07,54,2.60
2020,09,25,07,55,1.80
2020,09,25,07,56,1.50
2020,09,25,07,57,1.60
2020,09,25,07,58,2.30
2020,09,25,07,59,3.00
2020,09,25,08,00,3.80
2020,09,25,08,01,2.30
2020,09,25,08,02,1.90
2020,09,25,08,03,0.60
2020,09,25,08,04,0.00
2020,09,25,08,05,0.00
2020,09,25,08,06,0.00
2020,09,25,08,07,0.00
2020,09,25,08,08,0.00
2020,09,25,08,09,0.00
2020,09,25,08,10,0.10
2020,09,25,08,11,0.00
2020,09,25,08,12,0.00
2020,09,25,08,13,0.00
2020,09,25,08,14,0.00
2020,09,25,08,15,0.00
2020,09,25,08,16,0.00
2020,09,25,08,17,0.00
2020,09,25,08,18,0.00
2020,09,25,08,19,0.00
2020,09,25,08,20,0.00
2020,09,25,08,21,0.00
2020,09,25,08,22,0.00
2020,09,25,08,23,0.00
2020,09,25,08,24,0.00
2020,09,25,08,25,0.00
2020,09,25,08,26,0.10
2020,09,25,08,27,0.70
2020,09,25,08,28,0.10
2020,09,25,08,29,0.10
2020,09,25,08,30,1.50
2020,09,25,08,31,0.00
2020,09,25,08,32,0.00
2020,09,25,08,33,0.00
2020,09,25,08,34,0.00
2020,09,25,08,35,0.00
2020,09,25,08,36,0.80
2020,09,25,08,37,0.80
2020,09,25,08,38,0.50
2020,09,25,08,39,0.00
2020,09,25,08,40,0.00
2020,09,25,08,41,0.00
2020,09,25,08,42,0.00
2020,09,25,08,43,0.00
2020,09,25,08,44,0.00
2020,09,25,08,45,0.00
2020,09,25,08,46,0.00
2020,09,25,08,47,0.00
2020,09,25,08,48,0.00
2020,09,25,08,49,0.00
2020,09,25,08,50,0.00
2020,09,25,08,51,0.00
2020,09,25,08,52,0.00
2020,09,25,08,53,0.00
2020,09,25,08,54,0.00
2020,09,25,08,55,0.00
2020,09,25,08,56,0.00
2020,09,25,08,57,0.00
2020,09,25,08,58,0.00
2020,09,25,08,59,0.00
2020,09,25,09,00,0.00
2020,09,25,09,01,0.00
2020,09,25,09,02,0.00
2020,09,25,09,03,0.00
2020,09,25,09,04,0.00
2020,09,25,09,05,0.00
2020,09,25,09,06,0.00
2020,09,25,09,07,0.00
2020,09,25,09,08,0.00
2020,09,25,09,09,0.00
2020,09,25,09,10,0.00
2020,09,25,09,11,0.00
2020,09,25,09,12,0.00
2020,09,25,09,13,0.00
2020,09,25,09,14,0.00
2020,09,25,09,15,0.00
2020,09,25,09,16,0.00
2020,09,25,09,17,0.00
2020,09,25,09,18,0.00
2020,09,25,09,19,0.00
2020,09,25,09,20,0.00
2020,09,25,09,21,0.00
2020,09,25,09,22,0.00
2020,09,25,09,23,0.00
2020,09,25,09,24,0.00
2020,09,25,09,25,0.00
2020,09,25,09,26,0.00
2020,09,25,09,27,0.00
2020,09,25,09,28,0.00
2020,09,25,09,29,0.00
2020,09,25,09,30,0.00
2020,09,25,09,31,0.00
2020,09,25,09,32,0.00
2020,09,25,09,33,0.00
2020,09,25,09,34,0.10
2020,09,25,09,35,0.00
2020,09,25,09,36,0.00
2020,09,25,09,37,0.00
2020,09,25,09,38,0.00
2020,09,25,09,39,0.00
2020,09,25,09,40,0.00
2020,09,25,09,41,0.00
2020,09,25,09,42,0.00
2020,09,25,09,43,0.10
2020,09,25,09,44,0.00
2020,09,25,09,45,0.00
2020,09,25,09,46,0.00
2020,09,25,09,47,0.00
2020,09,25,09,48,0.00
2020,09,25,09,49,0.00
2020,09,25,09,50,0.00
2020,09,25,09,51,0.00
2020,09,25,09,52,0.00
2020,09,25,09,53,0.00
2020,09,25,09,54,0.00
2020,09,25,09,55,0.00
2020,09,25,09,56,0.00
2020,09,25,09,57,0.00
2020,09,25,09,58,0.00
2020,09,25,09,59,0.00
2020,09,25,10,00,0.00
2020,09,25,10,01,0.00
2020,09,25,10,02,0.00
2020,09,25,10,03,0.00
2020,09,25,10,04,0.00
2020,09,25,10,05,0.00
2020,09,25,10,06,0.00
2020,09,25,10,07,0.00
2020,09,25,10,08,0.00
2020,09,25,10,09,0.00
2020,09,25,10,10,0.00
2020,09,25,10,11,0.00
2020,09,25,10,12,0.00
2020,09,25,10,13,0.30
2020,09,25,10,14,0.00
2020,09,25,10,15,0.00
2020,09,25,10,16,0.00
2020,09,25,10,17,0.00
2020,09,25,10,18,0.00
2020,09,25,10,19,1.70
2020,09,25,10,20,4.20
2020,09,25,10,21,2.00
2020,09,25,10,22,0.00
2020,09,25,10,23,0.00
2020,09,25,10,24,0.10
2020,09,25,10,25,0.10
2020,09,25,10,26,0.00
2020,09,25,10,27,0.00
2020,09,25,10,28,0.00
2020,09,25,10,29,0.00
2020,09,25,10,30,0.00
2020,09,25,10,31,0.00
2020,09,25,10,32,0.10
2020,09,25,10,33,0.90
2020,09,25,10,34,1.80
2020,09,25,10,35,0.60
2020,09,25,10,36,1.70
2020,09,25,10,37,3.50
2020,09,25,10,38,1.90
2020,09,25,10,39,0.60
2020,09,25,10,40,0.00
2020,09,25,10,41,1.50
2020,09,25,10,42,2.80
2020,09,25,10,43,3.40
2020,09,25,10,44,2.30
2020,09,25,10,45,1.40
2020,09,25,10,46,0.00
2020,09,25,10,47,0.10
2020,09,25,10,48,0.40
2020,09,25,10,49,0.60
2020,09,25,10,50,0.20
2020,09,25,10,51,0.80
2020,09,25,10,52,0.40
2020,09,25,10,53,0.00
2020,09,25,10,54,0.00
2020,09,25,10,55,1.20
2020,09,25,10,56,1.60
2020,09,25,10,57,0.80
2020,09,25,10,58,3.20
2020,09,25,10,59,4.90
2020,09,25,11,00,1.10
2020,09,25,11,01,0.30
2020,09,25,11,02,1.80
2020,09,25,11,03,1.70
2020,09,25,11,04,2.80
2020,09,25,11,05,0.40
2020,09,25,11,06,5.10
2020,09,25,11,07,0.00
2020,09,25,11,08,0.00
2020,09,25,11,09,0.00
2020,09,25,11,10,3.00
2020,09,25,11,11,7.90
2020,09,25,11,12,6.30
2020,09,25,11,13,5.30
2020,09,25,11,14,0.40
2020,09,25,11,15,0.00
2020,09,25,11,16,0.40
2020,09,25,11,17,2.40
2020,09,25,11,18,6.20
2020,09,25,11,19,2.90
2020,09,25,11,20,0.20
2020,09,25,11,21,0.00
2020,09,25,11,22,2.50
2020,09,25,11,23,4.10
2020,09,25,11,24,4.00
2020,09,25,11,25,1.20
2020,09,25,11,26,0.50
2020,09,25,11,27,0.30
2020,09,25,11,28,7.00
2020,09,25,11,29,7.30
2020,09,25,11,30,4.10
2020,09,25,11,31,2.90
2020,09,25,11,32,1.90
2020,09,25,11,33,2.70
2020,09,25,11,34,6.30
2020,09,25,11,35,5.80
2020,09,25,11,36,6.40
2020,09,25,11,37,8.90
2020,09,25,11,38,9.80
2020,09,25,11,39,5.10
2020,09,25,11,40,3.50
2020,09,25,11,41,10.40
2020,09,25,11,42,7.00
2020,09,25,11,43,0.90
2020,09,25,11,44,4.90
2020,09,25,11,45,14.10
2020,09,25,11,46,8.90
2020,09,25,11,47,2.70
2020,09,25,11,48,5.70
2020,09,25,11,49,1.00
2020,09,25,11,50,9.30
2020,09,25,11,51,7.50
2020,09,25,11,52,8.00
2020,09,25,11,53,9.70
2020,09,25,11,54,7.10
2020,09,25,11,55,9.30
2020,09,25,11,56,7.90
2020,09,25,11,57,6.90
2020,09,25,11,58,6.90
2020,09,25,11,59,3.90
2020,09,25,12,00,8.50
2020,09,25,12,01,5.40
2020,09,25,12,02,11.40
2020,09,25,12,03,12.10
2020,09,25,12,04,2.00
2020,09,25,12,05,10.80
2020,09,25,12,06,7.40
2020,09,25,12,07,8.70
2020,09,25,12,08,8.20
2020,09,25,12,09,4.90
2020,09,25,12,10,6.90
2020,09,25,12,11,13.30
2020,09,25,12,12,17.50
2020,09,25,12,13,16.30
2020,09,25,12,14,3.50
2020,09,25,12,15,8.00
2020,09,25,12,16,6.40
2020,09,25,12,17,6.00
2020,09,25,12,18,9.90
2020,09,25,12,19,9.60
2020,09,25,12,20,6.20
2020,09,25,12,21,7.30
2020,09,25,12,22,2.00
2020,09,25,12,23,7.90
2020,09,25,12,24,3.40
2020,09,25,12,25,3.30
2020,09,25,12,26,7.50
2020,09,25,12,27,10.20
2020,09,25,12,28,8.00
2020,09,25,12,29,11.10
2020,09,25,12,30,12.90
2020,09,25,12,31,13.40
2020,09,25,12,32,14.20
2020,09,25,12,33,14.60
2020,09,25,12,34,6.00
2020,09,25,12,35,8.80
2020,09,25,12,36,12.20
2020,09,25,12,37,19.10
2020,09,25,12,38,16.50
2020,09,25,12,39,8.10
2020,09,25,12,40,8.90
2020,09,25,12,41,20.60
2020,09,25,12,42,7.50
2020,09,25,12,43,8.10
2020,09,25,12,44,9.70
2020,09,25,12,45,18.00
2020,09,25,12,46,10.70
2020,09,25,12,47,10.90
2020,09,25,12,48,12.20
2020,09,25,12,49,20.60
2020,09,25,12,50,18.20
2020,09,25,12,51,11.10
2020,09,25,12,52,9.50
2020,09,25,12,53,8.60
2020,09,25,12,54,11.30
2020,09,25,12,55,6.70
2020,09,25,12,56,18.00
2020,09,25,12,57,19.30
2020,09,25,12,58,16.60
2020,09,25,12,59,16.80
2020,09,25,13,00,21.70
2020,09,25,13,01,14.70
2020,09,25,13,02,14.40
2020,09,25,13,03,5.70
2020,09,25,13,04,11.50
2020,09,25,13,05,10.40
2020,09,25,13,06,3.20
2020,09,25,13,07,3.40
2020,09,25,13,08,10.80
2020,09,25,13,09,17.00
2020,09,25,13,10,20.90
2020,09,25,13,11,15.90
2020,09,25,13,12,14.30
2020,09,25,13,13,22.30
2020,09,25,13,14,22.80
2020,09,25,13,15,22.40
2020,09,25,13,16,24.50
2020,09,25,13,17,17.40
2020,09,25,13,18,24.50
2020,09,25,13,19,23.50
2020,09,25,13,20,11.30
2020,09,25,13,21,9.00
2020,09,25,13,22,2.80
2020,09,25,13,23,11.40
2020,09,25,13,24,11.90
2020,09,25,13,25,20.50
2020,09,25,13,26,13.90
2020,09,25,13,27,10.40
2020,09,25,13,28,4.20
2020,09,25,13,29,12.60
2020,09,25,13,30,5.70
2020,09,25,13,31,10.90
2020,09,25,13,32,7.60
2020,09,25,13,33,11.40
2020,09,25,13,34,16.10
2020,09,25,13,35,16.90
2020,09,25,13,36,19.10
2020,09,25,13,37,28.20
2020,09,25,13,38,11.70
2020,09,25,13,39,18.60
2020,09,25,13,40,9.60
2020,09,25,13,41,11.30
2020,09,25,13,42,32.00
2020,09,25,13,43,21.10
2020,09,25,13,44,8.90
2020,09,25,13,45,13.00
2020,09,25,13,46,13.20
2020,09,25,13,47,5.80
2020,09,25,13,48,5.60
2020,09,25,13,49,5.00
2020,09,25,13,50,14.40
2020,09,25,13,51,7.20
2020,09,25,13,52,4.70
2020,09,25,13,53,1.50
2020,09,25,13,54,8.20
2020,09,25,13,55,8.40
2020,09,25,13,56,9.40
2020,09,25,13,57,8.50
2020,09,25,13,58,10.70
2020,09,25,13,59,9.30
2020,09,25,14,00,10.60
2020,09,25,14,01,16.20
2020,09,25,14,02,6.30
2020,09,25,14,03,10.20
2020,09,25,14,04,7.90
2020,09,25,14,05,5.70
2020,09,25,14,06,13.80
2020,09,25,14,07,12.10
2020,09,25,14,08,15.90
2020,09,25,14,09,7.40
2020,09,25,14,10,15.30
2020,09,25,14,11,13.60
2020,09,25,14,12,8.00
2020,09,25,14,13,5.70
2020,09,25,14,14,4.40
2020,09,25,14,15,18.60
2020,09,25,14,16,8.30
2020,09,25,14,17,9.80
2020,09,25,14,18,13.90
2020,09,25,14,19,6.50
2020,09,25,14,20,3.20
2020,09,25,14,21,6.30
2020,09,25,14,22,15.50
2020,09,25,14,23,6.30
2020,09,25,14,24,8.30
2020,09,25,14,25,6.60
2020,09,25,14,26,11.50
2020,09,25,14,27,10.90
2020,09,25,14,28,5.60
2020,09,25,14,29,10.30
2020,09,25,14,30,14.30
2020,09,25,14,31,12.10
2020,09,25,14,32,12.80
2020,09,25,14,33,9.50
2020,09,25,14,34,19.30
2020,09,25,14,35,8.40
2020,09,25,14,36,11.50
2020,09,25,14,37,18.60
2020,09,25,14,38,12.80
2020,09,25,14,39,14.80
2020,09,25,14,40,7.30
2020,09,25,14,41,8.60
2020,09,25,14,42,14.30
2020,09,25,14,43,23.50
2020,09,25,14,44,18.10
2020,09,25,14,45,9.70
2020,09,25,14,46,4.70
2020,09,25,14,47,10.10
2020,09,25,14,48,23.60
2020,09,25,14,49,13.30
2020,09,25,14,50,2.90
2020,09,25,14,51,17.30
2020,09,25,14,52,7.10
2020,09,25,14,53,9.20
2020,09,25,14,54,8.80
2020,09,25,14,55,20.20
2020,09,25,14,56,15.60
2020,09,25,14,57,17.50
2020,09,25,14,58,13.30
2020,09,25,14,59,6.60
2020,09,25,15,00,13.90
2020,09,25,15,01,8.10
2020,09,25,15,02,8.00
2020,09,25,15,03,7.10
2020,09,25,15,04,13.00
2020,09,25,15,05,1.10
2020,09,25,15,06,10.70
2020,09,25,15,07,7.10
2020,09,25,15,08,7.80
2020,09,25,15,09,10.30
2020,09,25,15,10,8.40
2020,09,25,15,11,8.40
2020,09,25,15,12,8.70
2020,09,25,15,13,3.60
2020,09,25,15,14,3.10
2020,09,25,15,15,11.00
2020,09,25,15,16,8.80
2020,09,25,15,17,7.90
2020,09,25,15,18,5.20
2020,09,25,15,19,9.90
2020,09,25,15,20,11.50
2020,09,25,15,21,10.60
2020,09,25,15,22,13.50
2020,09,25,15,23,6.10
2020,09,25,15,24,11.40
2020,09,25,15,25,16.90
2020,09,25,15,26,6.70
2020,09,25,15,27,11.30
2020,09,25,15,28,14.40
2020,09,25,15,29,15.00
2020,09,25,15,30,9.30
2020,09,25,15,31,5.50
2020,09,25,15,32,4.00
2020,09,25,15,33,2.70
2020,09,25,15,34,5.50
2020,09,25,15,35,7.80
2020,09,25,15,36,12.50
2020,09,25,15,37,11.40
2020,09,25,15,38,22.30
2020,09,25,15,39,19.10
2020,09,25,15,40,18.60
2020,09,25,15,41,11.20
2020,09,25,15,42,13.40
2020,09,25,15,43,8.90
2020,09,25,15,44,7.80
2020,09,25,15,45,15.40
2020,09,25,15,46,9.90
2020,09,25,15,47,12.80
2020,09,25,15,48,7.40
2020,09,25,15,49,4.50
2020,09,25,15,50,6.50
2020,09,25,15,51,14.50
2020,09,25,15,52,8.00
2020,09,25,15,53,16.50
2020,09,25,15,54,9.30
2020,09,25,15,55,6.20
2020,09,25,15,56,6.50
2020,09,25,15,57,9.70
2020,09,25,15,58,8.70
2020,09,25,15,59,5.50
2020,09,25,16,00,8.70
2020,09,25,16,01,16.30
2020,09,25,16,02,11.20
2020,09,25,16,03,9.50
2020,09,25,16,04,7.90
2020,09,25,16,05,4.90
2020,09,25,16,06,10.80
2020,09,25,16,07,6.70
2020,09,25,16,08,9.10
2020,09,25,16,09,3.10
2020,09,25,16,10,12.40
2020,09,25,16,11,14.20
2020,09,25,16,12,17.70
2020,09,25,16,13,12.00
2020,09,25,16,14,14.30
2020,09,25,16,15,10.50
2020,09,25,16,16,10.10
2020,09,25,16,17,12.30
2020,09,25,16,18,21.50
2020,09,25,16,19,20.30
2020,09,25,16,20,10.30
2020,09,25,16,21,14.70
2020,09,25,16,22,21.90
2020,09,25,16,23,13.90
2020,09,25,16,24,14.30
2020,09,25,16,25,11.70
2020,09,25,16,26,9.30
2020,09,25,16,27,4.90
2020,09,25,16,28,16.40
2020,09,25,16,29,13.10
2020,09,25,16,30,10.30
2020,09,25,16,31,12.20
2020,09,25,16,32,8.40
2020,09,25,16,33,12.30
2020,09,25,16,34,7.50
2020,09,25,16,35,13.80
2020,09,25,16,36,13.40
2020,09,25,16,37,10.20
2020,09,25,16,38,28.10
2020,09,25,16,39,12.60
2020,09,25,16,40,12.60
2020,09,25,16,41,12.80
2020,09,25,16,42,8.80
2020,09,25,16,43,17.60
2020,09,25,16,44,16.90
2020,09,25,16,45,11.70
2020,09,25,16,46,5.70
2020,09,25,16,47,6.70
2020,09,25,16,48,8.20
2020,09,25,16,49,10.10
2020,09,25,16,50,13.60
2020,09,25,16,51,15.90
2020,09,25,16,52,6.90
2020,09,25,16,53,8.10
2020,09,25,16,54,11.00
2020,09,25,16,55,12.00
2020,09,25,16,56,12.30
2020,09,25,16,57,9.90
2020,09,25,16,58,7.10
2020,09,25,16,59,6.30
2020,09,25,17,00,6.50
2020,09,25,17,01,5.90
2020,09,25,17,02,6.10
2020,09,25,17,03,13.10
2020,09,25,17,04,10.30
2020,09,25,17,05,7.70
2020,09,25,17,06,6.80
2020,09,25,17,07,4.70
2020,09,25,17,08,5.70
2020,09,25,17,09,9.70
2020,09,25,17,10,8.20
2020,09,25,17,11,13.70
2020,09,25,17,12,22.50
2020,09,25,17,13,9.70
2020,09,25,17,14,12.90
2020,09,25,17,15,8.60
2020,09,25,17,16,3.40
2020,09,25,17,17,13.60
2020,09,25,17,18,9.90
2020,09,25,17,19,13.50
2020,09,25,17,20,19.50
2020,09,25,17,21,9.10
2020,09,25,17,22,4.20
2020,09,25,17,23,8.60
2020,09,25,17,24,8.70
2020,09,25,17,25,4.60
2020,09,25,17,26,5.30
2020,09,25,17,27,10.50
2020,09,25,17,28,5.60
2020,09,25,17,29,15.40
2020,09,25,17,30,8.80
2020,09,25,17,31,15.80
2020,09,25,17,32,10.90
2020,09,25,17,33,5.20
2020,09,25,17,34,14.40
2020,09,25,17,35,6.40
2020,09,25,17,36,5.30
2020,09,25,17,37,5.10
2020,09,25,17,38,10.30
2020,09,25,17,39,12.30
2020,09,25,17,40,13.60
2020,09,25,17,41,9.50
2020,09,25,17,42,6.00
2020,09,25,17,43,6.80
2020,09,25,17,44,9.30
2020,09,25,17,45,5.10
2020,09,25,17,46,9.80
2020,09,25,17,47,7.10
2020,09,25,17,48,2.80
2020,09,25,17,49,12.10
2020,09,25,17,50,10.30
2020,09,25,17,51,15.30
2020,09,25,17,52,12.80
2020,09,25,17,53,3.60
2020,09,25,17,54,9.90
2020,09,25,17,55,7.50
2020,09,25,17,56,9.90
2020,09,25,17,57,8.00
2020,09,25,17,58,9.60